CT1AKV-10 Estrada Real PT current weather conditions

sailwx.info

Wind from 174

Air temperature 21.1° C
Dewpoint 18.1° C

Last reported at 2014-Sep-15 21:15 UTC.
Time now 2014-Sep-16 00:56 UTC

Location: N 39°11' W 008°44'.
View on Google Maps.

See reports from other nearby stations

  
Tides and Currents Weather Stations Pressure Air Temp Water Temp Dewpoint Dewpoint Depression Visibility Wind Speed Wind Dir Waves Ship Positions
date/time (UTC)wind fromknots sea level pressurealtimeterstation pressurevisibilityair tempwater tempwave heightnotes
2014-Sep-15 21:15 174 21.1
2014-Sep-15 21:00 059 21.1
2014-Sep-15 20:45 187 21.1
2014-Sep-15 20:30 21.7
2014-Sep-15 20:15 21.7
2014-Sep-15 20:00 21.7
2014-Sep-15 19:45 183 21.7
2014-Sep-15 19:30 289 21.7
2014-Sep-15 19:15 167 22.2
2014-Sep-15 19:00 117 22.2
2014-Sep-15 18:45 212 22.8
2014-Sep-15 18:30 239 23.3
2014-Sep-15 18:15 237 23.9
2014-Sep-15 18:00 202 0 gusting 5 24.4
2014-Sep-15 17:45 165 25.6
2014-Sep-15 17:30 217 25.6
2014-Sep-15 17:15 140 0 gusting 9 26.7
2014-Sep-15 17:00 196 0 gusting 4 28.9
2014-Sep-15 16:45 201 0 gusting 6 27.2
2014-Sep-15 16:30 189 0 gusting 5 27.8
2014-Sep-15 16:15 222 0 gusting 6 30.6
2014-Sep-15 16:00 209 0 gusting 5 30.0
2014-Sep-15 15:45 203 0 gusting 6 30.0
2014-Sep-15 15:30 056 0 gusting 3 30.0
2014-Sep-15 15:15 202 0 gusting 6 29.4
2014-Sep-15 15:00 193 0 gusting 7 29.4
2014-Sep-15 14:45 078 0 gusting 6 30.0
2014-Sep-15 14:30 177 0 gusting 6 28.9
2014-Sep-15 14:15 182 27.8
2014-Sep-15 14:00 282 0 gusting 3 24.4
2014-Sep-15 13:45 274 0 gusting 6 23.9
2014-Sep-15 13:30 256 1 gusting 9 22.8
2014-Sep-15 13:15 227 2 gusting 7 22.2
2014-Sep-15 13:00 235 0 gusting 4 24.4
2014-Sep-15 12:45 265 23.9
2014-Sep-15 12:30 222 23.3
2014-Sep-15 12:15 200 25.0
2014-Sep-15 12:00 109 0 gusting 3 26.1
2014-Sep-14 21:15 20.6
2014-Sep-14 21:00 20.6
2014-Sep-14 20:45 257 20.6
2014-Sep-14 20:30 20.6
2014-Sep-14 20:15 230 20.6
2014-Sep-14 20:00 199 21.1
2014-Sep-14 19:45 21.1
2014-Sep-14 19:30 296 21.1
2014-Sep-14 19:15 21.7
2014-Sep-14 19:00 291 22.2
2014-Sep-14 18:45 238 0 gusting 6 22.8
2014-Sep-14 18:30 226 23.3
2014-Sep-14 18:15 176 0 gusting 6 24.4
2014-Sep-14 18:00 109 0 gusting 6 25.6
2014-Sep-14 17:45 255 0 gusting 6 26.7
2014-Sep-14 17:30 214 0 gusting 6 28.9
2014-Sep-14 17:15 200 1 gusting 11 29.4
2014-Sep-14 17:00 136 0 gusting 6 30.0
2014-Sep-14 16:45 233 1 gusting 6 29.4
2014-Sep-14 16:30 184 1 gusting 10 30.6
2014-Sep-14 16:15 199 1 gusting 6 31.1
2014-Sep-14 16:00 182 1 gusting 9 30.6
2014-Sep-14 15:45 214 2 gusting 8 30.6
2014-Sep-14 15:30 138 1 gusting 6 31.7
2014-Sep-14 15:15 152 1 gusting 9 31.7
2014-Sep-14 15:00 199 1 gusting 10 31.1
2014-Sep-14 14:45 166 0 gusting 6 31.7
2014-Sep-14 14:30 238 1 gusting 6 31.1
2014-Sep-14 14:15 202 1 gusting 6 31.7
2014-Sep-14 14:00 212 1 gusting 6 31.1
2014-Sep-14 13:45 193 1 gusting 12 30.6
2014-Sep-14 13:30 182 2 gusting 9 30.6
2014-Sep-14 13:15 241 1 gusting 7 31.1
2014-Sep-14 13:00 241 1 gusting 8 30.6
2014-Sep-14 12:45 148 1 gusting 8 28.9
2014-Sep-14 12:30 144 2 gusting 10 30.6
2014-Sep-14 12:15 215 1 gusting 9 30.0
2014-Sep-14 12:00 191 1 gusting 7 27.8
2014-Sep-14 11:45 136 1 gusting 6 28.3
2014-Sep-14 11:30 166 0 gusting 6 28.9
2014-Sep-14 11:15 184 1 gusting 6 30.6
2014-Sep-14 11:00 181 1 gusting 9 30.6
2014-Sep-14 10:45 163 0 gusting 6 30.0
2014-Sep-14 10:30 167 2 gusting 10 28.3
2014-Sep-14 10:15 229 1 gusting 4 27.8